Yukon, OK

2:24 AM CST on February 10, 2016 (GMT -0600)
Oklahoma City / Page Muni

Weather History for KRCE - December, 2012

Change the Weather History Date:

Sunday, December 2, 2012

  Actual Average (KOKC) Record (KOKC)
Temperature  
Mean Temperature 53 °F 44 °F  
Max Temperature 71 °F 54 °F 77 °F (1975)
Min Temperature 35 °F 34 °F 10 °F (1985)
Degree Days  
Heating Degree Days 12 21  
Month to date heating degree days 42  
Since 1 July heating degree days 641  
Cooling Degree Days 0 0  
Month to date cooling degree days 0  
Year to date cooling degree days 2099  
Growing Degree Days 3 (Base 50)    
Moisture  
Dew Point 46 °F    
Average Humidity 75    
Maximum Humidity 100    
Minimum Humidity 40    
Precipitation  
Precipitation 0.00 in 0.06 in 1.15 in (1953)
Month to date precipitation 0.13  
Year to date precipitation 34.77  
Snow  
Snow 0.00 in 0.10 in 4.90 in (1971)
Month to date snowfall 0.1  
Since 1 July snowfall 0.5  
Snow Depth -    
Sea Level Pressure  
Sea Level Pressure 29.97 in    
Wind  
Wind Speed 8 mph (SSW)    
Max Wind Speed 24 mph    
Max Gust Speed 31 mph    
Visibility 8 miles    
Events      
T = Trace of Precipitation, MM = Missing Value Source: NWS Daily Summary

Daily Weather History Graph

Daily Weather History Graph

Search for Another Location

Airport or City:

Trip Planner

Search our weather history database for the weather conditions in past years. The results will help you decide how hot, cold, wet, or windy it might be!

Date:

Astronomy

Dec. 02, 2012 Rise Set
Actual Time 7:23 AM CST 5:18 PM CST
Civil Twilight 6:55 AM CST 5:46 PM CST
Nautical Twilight 6:23 AM CST 6:17 PM CST
Astronomical Twilight 5:53 AM CST 6:48 PM CST
Moon 9:03 PM CST (12/2) 10:16 AM CST (12/2)
Length of Visible Light 10h 50m
Length of Day
9h 54m
Waning Gibbous, 85% of the Moon is Illuminated
Dec 2
Waning Gibbous
Dec 6
Last Quarter
Dec 13
New
Dec 19
First Quarter
Dec 28
Full

Hourly Weather History & Observations

Time (CST) Temp. Windchill Dew Point Humidity Pressure Visibility Wind Dir Wind Speed Gust Speed Precip Events Conditions
12:15 AM 44.6 °F 41.4 °F 39.2 °F 81% 29.97 in 10.0 mi NW 5.8 mph - N/A   Unknown
12:35 AM 44.6 °F 40.7 °F 39.2 °F 81% 29.97 in 10.0 mi NNW 6.9 mph - N/A   Unknown
12:55 AM 44.6 °F 42.2 °F 39.2 °F 81% 29.96 in 10.0 mi NNW 4.6 mph - N/A   Unknown
1:15 AM 44.6 °F - 39.2 °F 81% 29.96 in 10.0 mi Calm Calm - N/A   Unknown
1:35 AM 44.6 °F 42.2 °F 39.2 °F 81% 29.97 in 10.0 mi NW 4.6 mph - N/A   Unknown
1:55 AM 44.6 °F 41.4 °F 39.2 °F 81% 29.97 in 10.0 mi WNW 5.8 mph - N/A   Unknown
2:15 AM 41.0 °F 36.4 °F 37.4 °F 87% 29.97 in 10.0 mi NW 6.9 mph - N/A   Unknown
2:35 AM 41.0 °F 35.8 °F 39.2 °F 93% 29.98 in 8.0 mi NW 8.1 mph - N/A   Unknown
2:55 AM 41.0 °F 36.4 °F 39.2 °F 93% 29.99 in 8.0 mi NW 6.9 mph - N/A   Unknown
3:15 AM 41.0 °F 36.4 °F 39.2 °F 93% 29.98 in 8.0 mi NW 6.9 mph - N/A   Unknown
3:35 AM 39.2 °F 37.0 °F 37.4 °F 93% 29.98 in 7.0 mi NW 3.5 mph - N/A   Unknown
3:55 AM 39.2 °F 35.9 °F 37.4 °F 93% 29.99 in 6.0 mi WNW 4.6 mph - N/A   Mist
4:15 AM 39.2 °F 37.0 °F 37.4 °F 93% 29.99 in 5.0 mi WSW 3.5 mph - N/A   Mist
4:35 AM 37.4 °F 34.9 °F 37.4 °F 100% 30.00 in 5.0 mi NW 3.5 mph - N/A   Mist
4:55 AM 39.2 °F 33.6 °F 37.4 °F 93% 29.99 in 7.0 mi NNW 8.1 mph - N/A   Unknown
5:15 AM 39.2 °F 35.9 °F 37.4 °F 93% 30.00 in 5.0 mi WNW 4.6 mph - N/A   Mist
5:35 AM 37.4 °F 32.8 °F 37.4 °F 100% 30.00 in 5.0 mi WNW 5.8 mph - N/A   Mist
5:55 AM 37.4 °F 34.9 °F 35.6 °F 93% 30.01 in 4.0 mi WNW 3.5 mph - N/A   Mist
6:15 AM 37.4 °F 32.1 °F 35.6 °F 93% 30.01 in 4.0 mi WNW 6.9 mph - N/A   Mist
6:35 AM 37.4 °F 30.8 °F 35.6 °F 93% 30.02 in 3.0 mi NW 9.2 mph - N/A   Mist
7:15 AM 37.4 °F 32.1 °F 37.4 °F 100% 30.03 in 4.0 mi NNW 6.9 mph - N/A   Mist
7:35 AM 35.6 °F - 35.6 °F 100% 30.04 in 2.5 mi Calm Calm - N/A   Clear
7:55 AM 37.4 °F - 37.4 °F 100% 30.04 in 2.5 mi Calm Calm - N/A   Clear
8:15 AM 39.2 °F 37.0 °F 39.2 °F 100% 30.05 in 2.5 mi WSW 3.5 mph - N/A   Clear
8:35 AM 41.0 °F - 41.0 °F 100% 30.05 in 2.5 mi North - - N/A   Clear
8:55 AM 44.6 °F - 41.0 °F 87% 30.06 in 3.0 mi North - - N/A   Clear
9:15 AM 46.4 °F 45.2 °F 44.6 °F 93% 30.06 in 4.0 mi South 3.5 mph - N/A   Clear
9:35 AM 48.2 °F - 44.6 °F 87% 30.07 in 5.0 mi Calm Calm - N/A   Clear
9:55 AM 50.0 °F - 44.6 °F 82% 30.07 in 5.0 mi Calm Calm - N/A   Haze
10:15 AM 53.6 °F - 46.4 °F 77% 30.07 in 5.0 mi Calm Calm - N/A   Haze
10:35 AM 55.4 °F - 46.4 °F 72% 30.07 in 5.0 mi SSE 3.5 mph - N/A   Haze
10:55 AM 55.4 °F - 46.4 °F 72% 30.08 in 7.0 mi SSW 4.6 mph - N/A   Clear
11:15 AM 57.2 °F - 46.4 °F 67% 30.07 in 7.0 mi SSE 3.5 mph - N/A   Clear
11:35 AM 59.0 °F - 46.4 °F 63% 30.06 in 8.0 mi South 5.8 mph - N/A   Clear
11:55 AM 60.8 °F - 44.6 °F 55% 30.05 in 9.0 mi South 6.9 mph - N/A   Clear
12:15 PM 62.6 °F - 46.4 °F 55% 30.04 in 9.0 mi North - - N/A   Clear
12:35 PM 64.4 °F - 44.6 °F 49% 30.02 in 9.0 mi North - - N/A   Clear
12:55 PM 64.4 °F - 44.6 °F 49% 30.01 in 10.0 mi North - - N/A   Clear
1:15 PM 64.4 °F - 42.8 °F 45% 30.00 in 10.0 mi South 12.7 mph 17.3 mph N/A   Clear
1:35 PM 66.2 °F - 42.8 °F 43% 29.98 in 10.0 mi South 15.0 mph 19.6 mph N/A   Clear
1:55 PM 68.0 °F - 44.6 °F 43% 29.98 in 10.0 mi South 15.0 mph 20.7 mph N/A   Clear
2:15 PM 68.0 °F - 46.4 °F 46% 29.98 in 10.0 mi South 13.8 mph - N/A   Clear
2:35 PM 69.8 °F - 44.6 °F 40% 29.97 in 10.0 mi SSW 16.1 mph 21.9 mph N/A   Clear
2:55 PM 71.6 °F - 48.2 °F 43% 29.95 in 10.0 mi SSW 17.3 mph 20.7 mph N/A   Clear
3:15 PM 71.6 °F - 48.2 °F 43% 29.95 in 10.0 mi SSW 18.4 mph 24.2 mph N/A   Clear
3:35 PM 71.6 °F - 48.2 °F 43% 29.94 in 10.0 mi SSW 20.7 mph - N/A   Clear
3:55 PM 71.6 °F - 50.0 °F 46% 29.94 in 10.0 mi SSW 17.3 mph 23.0 mph N/A   Clear
4:15 PM 71.6 °F - 55.4 °F 57% 29.93 in 10.0 mi SSW 16.1 mph 21.9 mph N/A   Clear
4:35 PM 69.8 °F - 57.2 °F 64% 29.93 in 10.0 mi South 12.7 mph 17.3 mph N/A   Clear
4:55 PM 68.0 °F - 57.2 °F 68% 29.93 in 10.0 mi SSW 10.4 mph - N/A   Clear
5:15 PM 66.2 °F - 57.2 °F 73% 29.93 in 10.0 mi South 9.2 mph - N/A   Clear
5:35 PM 64.4 °F - 55.4 °F 73% 29.93 in 10.0 mi South 5.8 mph - N/A   Clear
6:15 PM 62.6 °F - 55.4 °F 77% 29.93 in 10.0 mi SSE 8.1 mph - N/A   Unknown
6:35 PM 60.8 °F - 55.4 °F 82% 29.93 in 10.0 mi South 9.2 mph - N/A   Unknown
6:55 PM 62.6 °F - 55.4 °F 77% 29.92 in 10.0 mi SSE 10.4 mph - N/A   Unknown
7:15 PM 62.6 °F - 55.4 °F 77% 29.92 in 10.0 mi SSE 10.4 mph - N/A   Unknown
7:35 PM 64.4 °F - 55.4 °F 73% 29.91 in 10.0 mi SSE 12.7 mph - N/A   Unknown
7:55 PM 66.2 °F - 57.2 °F 73% 29.91 in 10.0 mi South 15.0 mph - N/A   Unknown
8:15 PM 66.2 °F - 57.2 °F 73% 29.91 in 10.0 mi South 13.8 mph 20.7 mph N/A   Unknown
8:35 PM 66.2 °F - 57.2 °F 73% 29.90 in 10.0 mi South 16.1 mph - N/A   Unknown
8:55 PM 66.2 °F - 55.4 °F 68% 29.90 in 10.0 mi South 16.1 mph - N/A   Unknown
9:15 PM 64.4 °F - 55.4 °F 73% 29.90 in 10.0 mi South 15.0 mph 21.9 mph N/A   Unknown
9:35 PM 64.4 °F - 55.4 °F 73% 29.90 in 10.0 mi South 15.0 mph 20.7 mph N/A   Unknown
9:55 PM 66.2 °F - 55.4 °F 68% 29.89 in 10.0 mi South 18.4 mph - N/A   Unknown
10:15 PM 66.2 °F - 55.4 °F 68% 29.89 in 10.0 mi South 19.6 mph 25.3 mph N/A   Unknown
10:35 PM 66.2 °F - 55.4 °F 68% 29.89 in 10.0 mi South 18.4 mph 26.5 mph N/A   Unknown
10:55 PM 66.2 °F - 55.4 °F 68% 29.88 in 10.0 mi South 18.4 mph - N/A   Unknown
11:15 PM 66.2 °F - 55.4 °F 68% 29.89 in 10.0 mi South 21.9 mph 28.8 mph N/A   Unknown
11:35 PM 66.2 °F - 57.2 °F 73% 29.89 in 10.0 mi South 20.7 mph 29.9 mph N/A   Unknown
11:55 PM 66.2 °F - 57.2 °F 73% 29.89 in 10.0 mi South 24.2 mph 31.1 mph N/A   Unknown